Regional Weather Roundup
Issued by NWS Upton, NY

Current Version | Previous Version | Graphics & Text | Print | Product List | Glossary Off
Versions: 1 2 3 4 5 6 7 8 9 10 11 12 13 14 15 16 17 18 19 20 21 22 23 24 25 26 27 28 29 30 31 32 33 34 35 36 37 38 39 40 41 42 43 44 45 46 47 48 49 50
000 ASUS41 KOKX 110204 RWROKX REGIONAL WEATHER ROUNDUP NATIONAL WEATHER SERVICE NEW YORK NY 900 PM EST WED FEB 10 2016 NOTE: "FAIR" INDICATES FEW OR NO CLOUDS BELOW 12,000 FEET WITH NO SIGNIFICANT WEATHER AND/OR OBSTRUCTIONS TO VISIBILITY. NYZ071-072-176-178-NJZ106-104-110300- NEW YORK CITY METRO AREA CITY SKY/WX TMP DP RH WIND PRES REMARKS CENTRAL PARK CLEAR 32 15 49 VRB3 29.75R LAGUARDIA APRT PTCLDY 34 16 47 W17G24 29.73R WCI 23 KENNEDY INTL PTCLDY 33 17 51 W20G28 29.75R WCI 21 NEWARK/LIBERTY PTCLDY 32 17 54 W12 29.74R WCI 23 BRNX BOT. GARD N/A 32 18 55 W9 29.72S WCI 24 TETERBORO CLEAR 32 16 51 W10G22 29.72R WCI 24 $$ NYZ177-179-078>081-110300- LONG ISLAND NEW YORK CITY SKY/WX TMP DP RH WIND PRES REMARKS FARMINGDALE CLEAR 33 18 53 W12 29.72R WCI 24 ISLIP PTCLDY 32 18 56 W10 29.69S WCI 24 SHIRLEY CLEAR 32 19 58 W8 29.71R WCI 25 RIVERHEAD N/A 32 19 59 SW1 29.67S WESTHAMPTON CLEAR 28 19 69 SW10 29.71R WCI 19 EAST HAMPTON FAIR 31 22 69 W5 29.68R WCI 26 MONTAUK POINT N/A 37 21 52 W12G22 29.68R WCI 29 $$ NYZ052-065-067-110300- HUDSON VALLEY CITY SKY/WX TMP DP RH WIND PRES REMARKS WHITE PLAINS FLURRIES 33 17 51 W6 29.68R WCI 28 NEWBURGH MOCLDY 32 23 69 W12 29.69R WCI 23 MONTGOMERY CLOUDY 33 19 56 NW9 29.69R WCI 25 POUGHKEEPSIE CLOUDY 33 17 51 W7 29.69R WCI 27 ALBANY PTCLDY 29 17 61 NW9 29.68R WCI 20 $$ NJZ001-105-106-008-010-013-015-019>022-104-110300- NEW JERSEY CITY SKY/WX TMP DP RH WIND PRES REMARKS NEWARK/LIBERTY PTCLDY 32 17 54 W12 29.74R WCI 23 TETERBORO CLEAR 32 16 51 W10G22 29.72R WCI 24 CALDWELL MOCLDY 31 15 52 VRB3 29.74R MORRISTOWN MOCLDY 30 19 64 W9G18 29.74S WCI 22 SOMERVILLE MOCLDY 31 15 52 MISG 29.74S SUSSEX CLOUDY 30 17 58 SW6 29.71R WCI 24 ANDOVER N/A 29 15 56 VRB7 29.72S WCI 22 TRENTON MOCLDY 30 15 53 W8 29.78R WCI 22 MILLVILLE CLOUDY 30 17 58 W7 29.82R WCI 23 ATLANTIC CITY PTCLDY 30 12 47 W15 29.80S WCI 19 WRIGHTSTOWN PTCLDY 30 18 60 W10 29.76R WCI 21 TOMS RIVER PTCLDY 28 14 54 W8 29.79R WCI 20 BELMAR PTCLDY 30 12 47 W10G18 29.76S WCI 21 $$ PAZ047>061-062-071-110300- EASTERN PENNSYLVANIA CITY SKY/WX TMP DP RH WIND PRES REMARKS PHILADELPHIA CLOUDY 32 13 45 W12 29.82S WCI 23 ALLENTOWN CLOUDY 28 13 53 W12G21 29.77R WCI 18 SCRANTON CLOUDY 25 15 66 W12 29.71S WCI 14 $$ CTZ002-004>006-009-010-012-RIZ004-006-007-MAZ004-011-015-110300- SOUTHERN NEW ENGLAND IN CT CITY SKY/WX TMP DP RH WIND PRES REMARKS BRADLEY INTL PTCLDY 29 25 85 NW3 29.66R HARTFORD CLEAR 32 24 72 NW5 29.67S WCI 27 DANBURY MOCLDY 30 17 58 SW5 29.69R WCI 25 WTRBRY/OXFORD PTCLDY 30 12 47 W3 29.67R BRIDGEPORT CLEAR 34 20 56 W8 29.69S WCI 27 MERIDEN PTCLDY 25 17 72 CALM 29.68R NEW HAVEN CLEAR 34 21 59 W6 29.69R WCI 29 CHESTER FAIR 32 19 59 W5 29.66S WCI 27 GROTON CLEAR 33 23 66 W7 29.66S WCI 27 WILLIMANTIC CLOUDY 33 24 69 NW5 29.66S WCI 29 IN RI CITY SKY/WX TMP DP RH WIND PRES REMARKS PROVIDENCE MOCLDY 30 26 85 W7 29.66R WCI 23 BLOCK ISLAND CLEAR 36 21 55 NW12G21 29.64S WCI 27 WESTERLY PTCLDY 32 24 72 W3 29.66S IN MA CITY SKY/WX TMP DP RH WIND PRES REMARKS BOSTON PTCLDY 34 23 64 W15 29.63R WCI 24 WORCESTER MOCLDY 26 22 84 W8 29.60R WCI 18 WESTFIELD PTCLDY 29 19 66 NW8 29.65S WCI 21 PROVINCETOWN CLOUDY 34 31 88 W13 29.63R WCI 25 NANTUCKET CLOUDY 35 31 85 W9 29.65R WCI 28 $$ ANZ330-335-338-340-345-350-353-355-110300- COASTAL MARINE OBSERVATIONS STATION/POSITION TIME SKY/WX TEMP WIND PRES VSBY WAVE AIR SEA DIR/SP/G HT/PER (UTC) (F) (DEG/KT/KT) (MB) (MI) (FT/S) NY HARB ENTRANCE 0050 35 43 270/ 23/ 27 1005.8 5/11 4S FIRE IS NOT AVBL 20S FIRE ISLAND 0050 36 44 280/ 21/ 25 1006.1 7/ 6 GREAT SOUTH BAY NOT AVBL 23SW MTP 0150 38 45 280/ 17/ 23 1004.4 7/10 HUDSON CANYON 0050 38 48 1006.8 8/ 7 KINGS POINT 0100 34 38 310/ 16/ 19 1005.7 EXECUTION ROCKS NOT AVBL CENTRAL LI SOUND 0030 38 270/ 16/ 19 N/A 3/ 4 EASTERN LI SOUND 0100 39 42 280/ 16/ 21 N/A ROBBINS REEF 0100 33 270/ 18/ 23 1005.8 $$ >>>>>>>>>>>>>>>>>>>>>>>>>>>> KEY <<<<<<<<<<<<<<<<<<<<<<<<<<< > < > SKY/WX - SKY CONDITION/PRESENT WEATHER < > TMP - TEMPERATURE IN FAHRENHEIT < > DP - DEWPOINT IN FAHRENHEIT < > RH - RELATIVE HUMIDITY IN PERCENT < > WIND - DIRECTION AND SPEED IN MPH < > PRES - MEAN SEA LEVEL PRESSURE IN INCHES OF HG < > WCI - WIND CHILL INDEX < > VSB - VISIBILITY IN MILES < > HX - HEAT INDEX < > TC - TEMPERATURE IN CELSIUS < > VRB - VARIABLE WIND DIRECTION < > < >>>>>>>>>>>>>>>>>>>>>>>>>>>> KEY <<<<<<<<<<<<<<<<<<<<<<<<<<<

USA.gov is the U.S. government's official web portal to all federal, state and local government web resources and services.